Time,TemperatureF,DewpointF,PressureIn,WindDirection,WindDirectionDegrees,WindSpeedMPH,WindSpeedGustMPH,Humidity,HourlyPrecipIn,Conditions,Clouds,dailyrainin,SolarRadiationWatts/m^2,SoftwareType,DateUTC
2013-08-12 00:00:00,77.4,74.2,29.95,NW,326,0.0,0.0,90,0.00,,,0.00,0.00,VWS V14.01,2013-08-12 04:00:00,
2013-08-12 00:01:00,77.4,74.2,29.95,NW,326,0.0,0.0,90,0.00,,,0.00,0.00,VWS V14.01,2013-08-12 04:01:00,
2013-08-12 00:04:00,77.4,74.2,29.95,NW,325,1.0,1.0,90,0.00,,,0.00,0.00,VWS V14.01,2013-08-12 04:04:00,
2013-08-12 00:09:00,77.2,73.7,29.95,NW,325,0.0,0.0,89,0.00,,,0.00,0.00,VWS V14.01,2013-08-12 04:09:00,
2013-08-12 00:14:00,77.2,73.7,29.96,NW,325,0.0,0.0,89,0.00,,,0.00,0.00,VWS V14.01,2013-08-12 04:14:00,
2013-08-12 00:19:00,77.2,73.7,29.96,NW,325,0.0,0.0,89,0.00,,,0.00,0.00,VWS V14.01,2013-08-12 04:19:00,
2013-08-12 00:24:00,77.2,73.7,29.96,NW,325,0.0,0.0,89,0.00,,,0.00,0.00,VWS V14.01,2013-08-12 04:24:00,
2013-08-12 00:29:00,77.4,73.9,29.95,NW,325,0.0,0.0,89,0.00,,,0.00,0.00,VWS V14.01,2013-08-12 04:29:00,
2013-08-12 00:34:00,77.4,73.9,29.95,NW,325,0.0,0.0,89,0.00,,,0.00,0.00,VWS V14.01,2013-08-12 04:34:00,
2013-08-12 00:39:00,77.2,73.7,29.95,West,271,0.0,0.0,89,0.00,,,0.00,0.00,VWS V14.01,2013-08-12 04:39:00,
2013-08-12 00:44:00,77.2,73.7,29.96,West,270,0.0,0.0,89,0.00,,,0.00,0.00,VWS V14.01,2013-08-12 04:44:00,
2013-08-12 00:49:00,77.2,73.7,29.96,ESE,117,2.0,4.0,89,0.00,,,0.00,0.00,VWS V14.01,2013-08-12 04:49:00,
2013-08-12 00:54:00,77.4,73.9,29.96,ENE,66,0.0,0.0,89,0.00,,,0.00,0.00,VWS V14.01,2013-08-12 04:54:00,
2013-08-12 00:59:00,77.4,74.2,29.95,ENE,60,0.0,0.0,90,0.00,,,0.00,0.00,VWS V14.01,2013-08-12 04:59:00,
2013-08-12 01:04:00,77.2,74.0,29.95,ENE,64,0.0,0.0,90,0.00,,,0.00,0.00,VWS V14.01,2013-08-12 05:04:00,
2013-08-12 01:09:00,77.2,74.0,29.95,ENE,64,0.0,0.0,90,0.00,,,0.00,0.00,VWS V14.01,2013-08-12 05:09:00,
2013-08-12 01:14:00,77.2,74.0,29.95,ENE,64,0.0,0.0,90,0.00,,,0.00,0.00,VWS V14.01,2013-08-12 05:14:00,
2013-08-12 01:19:00,77.0,73.8,29.95,ENE,64,0.0,0.0,90,0.00,,,0.00,0.00,VWS V14.01,2013-08-12 05:19:00,
2013-08-12 01:24:00,77.0,74.2,29.95,ENE,64,0.0,0.0,91,0.00,,,0.00,0.00,VWS V14.01,2013-08-12 05:24:00,
2013-08-12 01:29:00,76.8,74.0,29.93,ENE,64,0.0,0.0,91,0.00,,,0.00,0.00,VWS V14.01,2013-08-12 05:29:00,
2013-08-12 01:34:00,76.7,73.9,29.93,ENE,64,0.0,0.0,91,0.00,,,0.00,0.00,VWS V14.01,2013-08-12 05:34:00,
2013-08-12 01:39:00,76.7,73.9,29.93,ENE,64,0.0,0.0,91,0.00,,,0.00,0.00,VWS V14.01,2013-08-12 05:39:00,
2013-08-12 01:44:00,76.5,73.7,29.94,ENE,64,0.0,0.0,91,0.00,,,0.00,0.00,VWS V14.01,2013-08-12 05:44:00,
2013-08-12 01:49:00,76.3,73.8,29.94,ENE,64,0.0,0.0,92,0.00,,,0.00,0.00,VWS V14.01,2013-08-12 05:49:00,
2013-08-12 01:53:00,76.3,73.8,29.94,ENE,64,0.0,0.0,92,0.00,,,0.00,0.00,VWS V14.01,2013-08-12 05:53:00,
2013-08-12 01:58:00,76.1,73.6,29.93,ENE,64,0.0,0.0,92,0.00,,,0.00,0.00,VWS V14.01,2013-08-12 05:58:00,
2013-08-12 02:03:00,76.1,73.6,29.93,ENE,64,0.0,0.0,92,0.00,,,0.00,0.00,VWS V14.01,2013-08-12 06:03:00,
2013-08-12 02:08:00,76.0,73.5,29.93,ENE,64,0.0,0.0,92,0.00,,,0.00,0.00,VWS V14.01,2013-08-12 06:08:00,
2013-08-12 02:13:00,76.0,73.5,29.93,ENE,64,0.0,0.0,92,0.00,,,0.00,0.00,VWS V14.01,2013-08-12 06:13:00,
2013-08-12 02:18:00,76.0,73.5,29.93,ENE,64,0.0,0.0,92,0.00,,,0.00,0.00,VWS V14.01,2013-08-12 06:18:00,
2013-08-12 02:23:00,75.8,73.3,29.93,ENE,64,0.0,0.0,92,0.00,,,0.00,0.00,VWS V14.01,2013-08-12 06:23:00,
2013-08-12 02:28:00,75.8,73.6,29.93,ENE,64,0.0,0.0,93,0.00,,,0.00,0.00,VWS V14.01,2013-08-12 06:28:00,
2013-08-12 02:33:00,75.6,73.4,29.93,ENE,64,0.0,0.0,93,0.00,,,0.00,0.00,VWS V14.01,2013-08-12 06:33:00,
2013-08-12 02:38:00,75.6,73.4,29.93,ENE,64,0.0,0.0,93,0.00,,,0.00,0.00,VWS V14.01,2013-08-12 06:38:00,
2013-08-12 02:43:00,75.6,73.4,29.92,ENE,64,0.0,0.0,93,0.00,,,0.00,0.00,VWS V14.01,2013-08-12 06:43:00,
2013-08-12 02:48:00,75.4,73.2,29.92,ENE,64,0.0,0.0,93,0.00,,,0.00,0.00,VWS V14.01,2013-08-12 06:48:00,
2013-08-12 02:53:00,75.4,73.2,29.92,ENE,64,0.0,0.0,93,0.00,,,0.00,0.00,VWS V14.01,2013-08-12 06:53:00,
2013-08-12 02:58:00,75.4,73.2,29.92,ENE,64,0.0,0.0,93,0.00,,,0.00,0.00,VWS V14.01,2013-08-12 06:58:00,
2013-08-12 03:03:00,75.3,73.1,29.92,ENE,64,0.0,0.0,93,0.00,,,0.00,0.00,VWS V14.01,2013-08-12 07:03:00,
2013-08-12 03:08:00,75.3,73.1,29.92,ENE,64,0.0,0.0,93,0.00,,,0.00,0.00,VWS V14.01,2013-08-12 07:08:00,
2013-08-12 03:13:00,75.3,73.1,29.92,ENE,64,0.0,0.0,93,0.00,,,0.00,0.00,VWS V14.01,2013-08-12 07:13:00,
2013-08-12 03:18:00,75.3,73.1,29.92,ENE,64,0.0,0.0,93,0.00,,,0.00,0.00,VWS V14.01,2013-08-12 07:18:00,
2013-08-12 03:23:00,75.1,72.9,29.92,ENE,64,0.0,0.0,93,0.00,,,0.00,0.00,VWS V14.01,2013-08-12 07:23:00,
2013-08-12 03:28:00,75.1,73.3,29.92,ENE,64,0.0,0.0,94,0.00,,,0.00,0.00,VWS V14.01,2013-08-12 07:28:00,
2013-08-12 03:33:00,75.1,73.3,29.92,ENE,64,0.0,0.0,94,0.00,,,0.00,0.00,VWS V14.01,2013-08-12 07:33:00,
2013-08-12 03:38:00,75.1,73.3,29.92,ENE,64,0.0,0.0,94,0.00,,,0.00,0.00,VWS V14.01,2013-08-12 07:38:00,
2013-08-12 03:43:00,74.9,73.1,29.92,ENE,64,0.0,0.0,94,0.00,,,0.00,0.00,VWS V14.01,2013-08-12 07:43:00,
2013-08-12 03:48:00,74.9,73.1,29.92,ENE,64,0.0,0.0,94,0.00,,,0.00,0.00,VWS V14.01,2013-08-12 07:48:00,
2013-08-12 03:53:00,74.9,73.1,29.92,ENE,64,0.0,0.0,94,0.00,,,0.00,0.00,VWS V14.01,2013-08-12 07:53:00,
2013-08-12 03:58:00,74.9,73.1,29.92,ENE,64,0.0,0.0,94,0.00,,,0.00,0.00,VWS V14.01,2013-08-12 07:58:00,
2013-08-12 04:03:00,74.7,72.9,29.92,ENE,64,0.0,0.0,94,0.00,,,0.00,0.00,VWS V14.01,2013-08-12 08:03:00,
2013-08-12 04:08:00,74.7,72.9,29.92,ENE,64,0.0,0.0,94,0.00,,,0.00,0.00,VWS V14.01,2013-08-12 08:08:00,
2013-08-12 04:13:00,74.7,72.9,29.92,ENE,64,0.0,0.0,94,0.00,,,0.00,0.00,VWS V14.01,2013-08-12 08:13:00,
2013-08-12 04:18:00,74.6,72.8,29.92,ENE,64,0.0,0.0,94,0.00,,,0.00,0.00,VWS V14.01,2013-08-12 08:18:00,
2013-08-12 04:23:00,74.7,72.9,29.92,ENE,64,0.0,0.0,94,0.00,,,0.00,0.00,VWS V14.01,2013-08-12 08:23:00,
2013-08-12 04:28:00,74.7,72.9,29.92,ENE,64,0.0,0.0,94,0.00,,,0.00,0.00,VWS V14.01,2013-08-12 08:28:00,
2013-08-12 04:33:00,74.6,72.8,29.92,ENE,64,0.0,0.0,94,0.00,,,0.00,0.00,VWS V14.01,2013-08-12 08:33:00,
2013-08-12 04:38:00,74.6,72.8,29.92,ENE,64,0.0,0.0,94,0.00,,,0.00,0.00,VWS V14.01,2013-08-12 08:38:00,
2013-08-12 04:43:00,74.6,72.8,29.92,ENE,64,0.0,0.0,94,0.00,,,0.00,0.00,VWS V14.01,2013-08-12 08:43:00,
2013-08-12 04:48:00,74.4,72.6,29.92,ENE,64,0.0,0.0,94,0.00,,,0.00,0.00,VWS V14.01,2013-08-12 08:48:00,
2013-08-12 04:53:00,74.4,72.6,29.92,ENE,64,0.0,0.0,94,0.00,,,0.00,0.00,VWS V14.01,2013-08-12 08:53:00,
2013-08-12 04:58:00,74.2,72.4,29.92,ENE,64,0.0,0.0,94,0.00,,,0.00,0.00,VWS V14.01,2013-08-12 08:58:00,
2013-08-12 05:03:00,74.2,72.4,29.92,ENE,64,0.0,0.0,94,0.00,,,0.00,0.00,VWS V14.01,2013-08-12 09:03:00,
2013-08-12 05:08:00,74.2,72.7,29.92,ENE,64,0.0,0.0,95,0.00,,,0.00,0.00,VWS V14.01,2013-08-12 09:08:00,
2013-08-12 05:13:00,74.2,72.7,29.92,ENE,64,0.0,0.0,95,0.00,,,0.00,0.00,VWS V14.01,2013-08-12 09:13:00,
2013-08-12 05:18:00,74.0,72.5,29.92,ENE,64,0.0,0.0,95,0.00,,,0.00,0.00,VWS V14.01,2013-08-12 09:18:00,
2013-08-12 05:23:00,74.0,72.5,29.92,ENE,64,0.0,0.0,95,0.00,,,0.00,0.00,VWS V14.01,2013-08-12 09:23:00,
2013-08-12 05:28:00,74.0,72.5,29.92,ENE,64,0.0,0.0,95,0.00,,,0.00,0.00,VWS V14.01,2013-08-12 09:28:00,
2013-08-12 05:33:00,74.0,72.5,29.92,ENE,64,0.0,0.0,95,0.00,,,0.00,0.00,VWS V14.01,2013-08-12 09:33:00,
2013-08-12 05:38:00,74.0,72.5,29.92,ENE,64,0.0,0.0,95,0.00,,,0.00,0.00,VWS V14.01,2013-08-12 09:38:00,
2013-08-12 05:43:00,74.0,72.5,29.93,ENE,64,0.0,0.0,95,0.00,,,0.00,0.00,VWS V14.01,2013-08-12 09:43:00,
2013-08-12 05:48:00,74.2,72.7,29.93,ENE,64,0.0,0.0,95,0.00,,,0.00,0.00,VWS V14.01,2013-08-12 09:48:00,
2013-08-12 05:53:00,74.2,72.7,29.93,ENE,64,0.0,0.0,95,0.00,,,0.00,0.00,VWS V14.01,2013-08-12 09:53:00,
2013-08-12 05:58:00,74.4,72.9,29.92,ENE,64,0.0,0.0,95,0.00,,,0.00,0.00,VWS V14.01,2013-08-12 09:58:00,
2013-08-12 06:03:00,74.2,72.7,29.92,ENE,64,0.0,0.0,95,0.00,,,0.00,0.00,VWS V14.01,2013-08-12 10:03:00,
2013-08-12 06:08:00,74.0,72.5,29.92,ENE,64,0.0,0.0,95,0.00,,,0.00,0.00,VWS V14.01,2013-08-12 10:08:00,
2013-08-12 06:13:00,73.9,72.4,29.93,ENE,64,0.0,0.0,95,0.00,,,0.00,0.00,VWS V14.01,2013-08-12 10:13:00,
2013-08-12 06:18:00,73.9,72.4,29.93,ENE,64,0.0,0.0,95,0.00,,,0.00,0.00,VWS V14.01,2013-08-12 10:18:00,
2013-08-12 06:23:00,73.7,72.2,29.93,ENE,64,0.0,0.0,95,0.00,,,0.00,0.00,VWS V14.01,2013-08-12 10:23:00,
2013-08-12 06:28:00,73.7,72.2,29.93,ENE,64,0.0,0.0,95,0.00,,,0.00,0.00,VWS V14.01,2013-08-12 10:28:00,
2013-08-12 06:33:00,73.7,72.2,29.93,ENE,64,0.0,0.0,95,0.00,,,0.00,0.00,VWS V14.01,2013-08-12 10:33:00,
2013-08-12 06:38:00,73.7,72.2,29.93,ENE,64,0.0,0.0,95,0.00,,,0.00,5.00,VWS V14.01,2013-08-12 10:38:00,
2013-08-12 06:43:00,73.7,72.2,29.93,ENE,64,0.0,0.0,95,0.00,,,0.00,9.00,VWS V14.01,2013-08-12 10:43:00,
2013-08-12 06:48:00,73.7,72.2,29.93,ENE,64,0.0,0.0,95,0.00,,,0.00,11.00,VWS V14.01,2013-08-12 10:48:00,
2013-08-12 06:53:00,73.7,72.2,29.93,ENE,64,0.0,0.0,95,0.00,,,0.00,14.00,VWS V14.01,2013-08-12 10:53:00,
2013-08-12 06:58:00,73.7,72.2,29.94,ENE,64,0.0,0.0,95,0.00,,,0.00,16.00,VWS V14.01,2013-08-12 10:58:00,
2013-08-12 07:03:00,73.7,72.2,29.94,ENE,64,0.0,0.0,95,0.00,,,0.00,19.00,VWS V14.01,2013-08-12 11:03:00,
2013-08-12 07:08:00,73.7,72.2,29.94,ENE,64,0.0,0.0,95,0.00,,,0.00,23.00,VWS V14.01,2013-08-12 11:08:00,
2013-08-12 07:13:00,73.9,72.4,29.94,ENE,64,0.0,0.0,95,0.00,,,0.00,19.00,VWS V14.01,2013-08-12 11:13:00,
2013-08-12 07:18:00,73.9,72.7,29.94,ENE,64,0.0,0.0,96,0.00,,,0.00,26.00,VWS V14.01,2013-08-12 11:18:00,
2013-08-12 07:23:00,74.0,72.8,29.94,ENE,64,0.0,0.0,96,0.00,,,0.00,28.00,VWS V14.01,2013-08-12 11:23:00,
2013-08-12 07:28:00,74.2,73.0,29.94,ENE,64,0.0,0.0,96,0.00,,,0.00,32.00,VWS V14.01,2013-08-12 11:28:00,
2013-08-12 07:33:00,74.4,73.2,29.94,ENE,64,0.0,0.0,96,0.00,,,0.00,33.00,VWS V14.01,2013-08-12 11:33:00,
2013-08-12 07:38:00,74.7,73.5,29.94,ENE,62,0.0,0.0,96,0.00,,,0.00,35.00,VWS V14.01,2013-08-12 11:38:00,
2013-08-12 07:43:00,74.9,73.7,29.95,ENE,62,2.0,3.0,96,0.00,,,0.00,39.00,VWS V14.01,2013-08-12 11:43:00,
2013-08-12 07:48:00,75.4,74.2,29.95,ENE,62,0.0,0.0,96,0.00,,,0.00,40.00,VWS V14.01,2013-08-12 11:48:00,
2013-08-12 07:53:00,75.6,74.4,29.95,ENE,61,0.0,0.0,96,0.00,,,0.00,42.00,VWS V14.01,2013-08-12 11:53:00,
2013-08-12 07:58:00,76.0,74.8,29.94,ENE,62,0.0,0.0,96,0.00,,,0.00,42.00,VWS V14.01,2013-08-12 11:58:00,
2013-08-12 08:03:00,76.1,74.9,29.94,WNW,299,0.0,0.0,96,0.00,,,0.00,44.00,VWS V14.01,2013-08-12 12:03:00,
2013-08-12 08:08:00,76.5,75.3,29.94,WNW,299,0.0,0.0,96,0.00,,,0.00,46.00,VWS V14.01,2013-08-12 12:08:00,
2013-08-12 08:13:00,76.7,75.5,29.95,WNW,299,0.0,0.0,96,0.00,,,0.00,47.00,VWS V14.01,2013-08-12 12:13:00,
2013-08-12 08:18:00,77.0,75.8,29.95,WNW,299,0.0,0.0,96,0.00,,,0.00,47.00,VWS V14.01,2013-08-12 12:18:00,
2013-08-12 08:23:00,77.2,76.0,29.95,WNW,301,0.0,0.0,96,0.00,,,0.00,49.00,VWS V14.01,2013-08-12 12:23:00,
2013-08-12 08:28:00,77.4,75.9,29.95,NW,305,0.0,0.0,95,0.00,,,0.00,51.00,VWS V14.01,2013-08-12 12:28:00,
2013-08-12 08:33:00,77.6,76.1,29.95,NNW,343,2.0,3.0,95,0.00,,,0.00,51.00,VWS V14.01,2013-08-12 12:33:00,
2013-08-12 08:38:00,77.7,75.8,29.95,NNW,342,0.0,0.0,94,0.00,,,0.00,53.00,VWS V14.01,2013-08-12 12:38:00,
2013-08-12 08:43:00,78.1,75.9,29.94,NNW,342,0.0,0.0,93,0.00,,,0.00,53.00,VWS V14.01,2013-08-12 12:43:00,
2013-08-12 08:48:00,78.5,75.7,29.94,NNW,347,0.0,1.0,91,0.00,,,0.00,54.00,VWS V14.01,2013-08-12 12:48:00,
2013-08-12 08:53:00,78.6,75.1,29.94,WNW,301,5.0,7.0,89,0.00,,,0.00,54.00,VWS V14.01,2013-08-12 12:53:00,
2013-08-12 08:58:00,78.6,74.4,29.94,NW,309,0.0,0.0,87,0.00,,,0.00,56.00,VWS V14.01,2013-08-12 12:58:00,
2013-08-12 09:03:00,79.2,73.9,29.94,NNW,345,5.0,5.0,84,0.00,,,0.00,58.00,VWS V14.01,2013-08-12 13:03:00,
2013-08-12 09:08:00,79.4,73.4,29.94,North,355,6.0,7.0,82,0.00,,,0.00,410.00,VWS V14.01,2013-08-12 13:08:00,
2013-08-12 09:13:00,79.8,73.1,29.94,NNW,343,1.0,9.0,80,0.00,,,0.00,431.00,VWS V14.01,2013-08-12 13:13:00,
2013-08-12 09:18:00,80.3,73.2,29.94,North,350,0.0,0.0,79,0.00,,,0.00,378.00,VWS V14.01,2013-08-12 13:18:00,
2013-08-12 09:23:00,81.1,73.2,29.94,North,356,4.0,7.0,77,0.00,,,0.00,292.00,VWS V14.01,2013-08-12 13:23:00,
2013-08-12 09:28:00,81.6,72.9,29.94,NNW,332,6.0,6.0,75,0.00,,,0.00,448.00,VWS V14.01,2013-08-12 13:28:00,
2013-08-12 09:33:00,82.0,72.9,29.94,North,358,7.0,7.0,74,0.00,,,0.00,436.00,VWS V14.01,2013-08-12 13:33:00,
2013-08-12 09:38:00,82.4,72.5,29.94,NNW,346,1.0,1.0,72,0.00,,,0.00,508.00,VWS V14.01,2013-08-12 13:38:00,
2013-08-12 09:43:00,83.0,73.1,29.95,North,352,2.0,5.0,72,0.00,,,0.00,524.00,VWS V14.01,2013-08-12 13:43:00,
2013-08-12 09:48:00,83.4,73.0,29.95,NNW,336,5.0,6.0,71,0.00,,,0.00,540.00,VWS V14.01,2013-08-12 13:48:00,
2013-08-12 09:53:00,83.8,73.4,29.95,NE,36,2.0,2.0,71,0.00,,,0.00,557.00,VWS V14.01,2013-08-12 13:53:00,
2013-08-12 09:58:00,84.1,72.4,29.95,North,356,0.0,11.0,68,0.00,,,0.00,570.00,VWS V14.01,2013-08-12 13:58:00,
2013-08-12 10:03:00,84.3,72.6,29.95,North,8,0.0,0.0,68,0.00,,,0.00,580.00,VWS V14.01,2013-08-12 14:03:00,
2013-08-12 10:08:00,84.7,72.5,29.95,WNW,284,0.0,0.0,67,0.00,,,0.00,598.00,VWS V14.01,2013-08-12 14:08:00,
2013-08-12 10:13:00,85.1,72.9,29.95,West,274,2.0,5.0,67,0.00,,,0.00,612.00,VWS V14.01,2013-08-12 14:13:00,
2013-08-12 10:18:00,85.5,72.4,29.95,NNW,333,0.0,0.0,65,0.00,,,0.00,629.00,VWS V14.01,2013-08-12 14:18:00,
2013-08-12 10:23:00,85.9,72.8,29.95,NNW,335,0.0,1.0,65,0.00,,,0.00,642.00,VWS V14.01,2013-08-12 14:23:00,
2013-08-12 10:28:00,86.3,71.8,29.94,NNW,342,0.0,4.0,62,0.00,,,0.00,656.00,VWS V14.01,2013-08-12 14:28:00,
2013-08-12 10:33:00,86.7,71.7,29.94,NNW,336,0.0,4.0,61,0.00,,,0.00,668.00,VWS V14.01,2013-08-12 14:33:00,
2013-08-12 10:38:00,87.0,71.4,29.94,NW,314,0.0,3.0,60,0.00,,,0.00,682.00,VWS V14.01,2013-08-12 14:38:00,
2013-08-12 10:43:00,87.2,72.6,29.94,North,356,0.0,0.0,62,0.00,,,0.00,694.00,VWS V14.01,2013-08-12 14:43:00,
2013-08-12 10:48:00,87.6,73.0,29.94,NW,308,2.0,5.0,62,0.00,,,0.00,708.00,VWS V14.01,2013-08-12 14:48:00,
2013-08-12 10:53:00,87.8,72.7,29.94,NNE,13,0.0,7.0,61,0.00,,,0.00,719.00,VWS V14.01,2013-08-12 14:53:00,
2013-08-12 10:58:00,88.0,71.9,29.95,North,350,5.0,12.0,59,0.00,,,0.00,731.00,VWS V14.01,2013-08-12 14:58:00,
2013-08-12 11:03:00,88.0,71.9,29.95,North,9,0.0,0.0,59,0.00,,,0.00,747.00,VWS V14.01,2013-08-12 15:03:00,
2013-08-12 11:08:00,88.4,72.3,29.95,North,351,6.0,6.0,59,0.00,,,0.00,756.00,VWS V14.01,2013-08-12 15:08:00,
2013-08-12 11:13:00,88.6,71.9,29.94,NNW,339,0.0,0.0,58,0.00,,,0.00,768.00,VWS V14.01,2013-08-12 15:13:00,
2013-08-12 11:18:00,88.6,72.4,29.94,North,0,0.0,5.0,59,0.00,,,0.00,782.00,VWS V14.01,2013-08-12 15:18:00,
2013-08-12 11:23:00,88.4,72.8,29.94,NNE,19,0.0,1.0,60,0.00,,,0.00,791.00,VWS V14.01,2013-08-12 15:23:00,
2013-08-12 11:28:00,88.6,72.4,29.94,NNW,327,0.0,0.0,59,0.00,,,0.00,802.00,VWS V14.01,2013-08-12 15:28:00,
2013-08-12 11:33:00,88.8,71.6,29.94,NNW,343,0.0,4.0,57,0.00,,,0.00,812.00,VWS V14.01,2013-08-12 15:33:00,
2013-08-12 11:38:00,89.3,72.1,29.94,North,0,0.0,0.0,57,0.00,,,0.00,821.00,VWS V14.01,2013-08-12 15:38:00,
2013-08-12 11:43:00,89.7,71.9,29.93,NNW,339,0.0,0.0,56,0.00,,,0.00,831.00,VWS V14.01,2013-08-12 15:43:00,
2013-08-12 11:48:00,89.9,72.1,29.93,West,261,0.0,0.0,56,0.00,,,0.00,846.00,VWS V14.01,2013-08-12 15:48:00,
2013-08-12 11:53:00,89.9,72.1,29.93,NE,56,0.0,0.0,56,0.00,,,0.00,846.00,VWS V14.01,2013-08-12 15:53:00,
2013-08-12 11:58:00,90.1,72.8,29.93,North,4,7.0,7.0,57,0.00,,,0.00,860.00,VWS V14.01,2013-08-12 15:58:00,
2013-08-12 12:03:00,90.5,72.7,29.93,NNW,332,0.0,0.0,56,0.00,,,0.00,879.00,VWS V14.01,2013-08-12 16:03:00,
2013-08-12 12:08:00,90.5,72.1,29.93,North,0,2.0,2.0,55,0.00,,,0.00,877.00,VWS V14.01,2013-08-12 16:08:00,
2013-08-12 12:13:00,91.0,72.6,29.93,NNW,335,4.0,6.0,55,0.00,,,0.00,898.00,VWS V14.01,2013-08-12 16:13:00,
2013-08-12 12:18:00,91.4,71.9,29.93,North,356,0.0,5.0,53,0.00,,,0.00,896.00,VWS V14.01,2013-08-12 16:18:00,
2013-08-12 12:23:00,91.4,72.4,29.93,North,0,2.0,5.0,54,0.00,,,0.00,916.00,VWS V14.01,2013-08-12 16:23:00,
2013-08-12 12:28:00,91.0,71.5,29.92,East,82,0.0,0.0,53,0.00,,,0.00,188.00,VWS V14.01,2013-08-12 16:28:00,
2013-08-12 12:33:00,91.2,72.2,29.92,NW,306,3.0,4.0,54,0.00,,,0.00,900.00,VWS V14.01,2013-08-12 16:33:00,
2013-08-12 12:38:00,91.4,71.3,29.92,NW,304,3.0,4.0,52,0.00,,,0.00,904.00,VWS V14.01,2013-08-12 16:38:00,
2013-08-12 12:43:00,91.6,72.1,29.92,North,358,0.0,0.0,53,0.00,,,0.00,911.00,VWS V14.01,2013-08-12 16:43:00,
2013-08-12 12:48:00,91.4,72.4,29.92,NNW,344,0.0,0.0,54,0.00,,,0.00,916.00,VWS V14.01,2013-08-12 16:48:00,
2013-08-12 12:53:00,91.4,72.4,29.92,WNW,282,4.0,6.0,54,0.00,,,0.00,930.00,VWS V14.01,2013-08-12 16:53:00,
2013-08-12 12:58:00,91.6,72.1,29.92,NNW,348,0.0,0.0,53,0.00,,,0.00,923.00,VWS V14.01,2013-08-12 16:58:00,
2013-08-12 13:03:00,91.8,70.5,29.92,West,278,5.0,7.0,50,0.00,,,0.00,925.00,VWS V14.01,2013-08-12 17:03:00,
2013-08-12 13:08:00,92.1,70.8,29.92,NE,43,0.0,0.0,50,0.00,,,0.00,925.00,VWS V14.01,2013-08-12 17:08:00,
2013-08-12 13:13:00,92.1,70.2,29.91,NE,37,0.0,0.0,49,0.00,,,0.00,933.00,VWS V14.01,2013-08-12 17:13:00,
2013-08-12 13:18:00,92.3,71.6,29.91,West,275,0.0,1.0,51,0.00,,,0.00,921.00,VWS V14.01,2013-08-12 17:18:00,
2013-08-12 13:23:00,92.3,71.0,29.91,WSW,251,0.0,0.0,50,0.00,,,0.00,928.00,VWS V14.01,2013-08-12 17:23:00,
2013-08-12 13:28:00,92.3,71.0,29.91,West,272,0.0,4.0,50,0.00,,,0.00,937.00,VWS V14.01,2013-08-12 17:28:00,
2013-08-12 13:33:00,92.1,71.4,29.91,North,349,6.0,7.0,51,0.00,,,0.00,851.00,VWS V14.01,2013-08-12 17:33:00,
2013-08-12 13:38:00,92.1,70.2,29.91,WNW,287,0.0,1.0,49,0.00,,,0.00,937.00,VWS V14.01,2013-08-12 17:38:00,
2013-08-12 13:43:00,92.5,71.2,29.91,NW,322,0.0,0.0,50,0.00,,,0.00,946.00,VWS V14.01,2013-08-12 17:43:00,
2013-08-12 13:48:00,93.2,71.8,29.91,NNW,346,1.0,6.0,50,0.00,,,0.00,944.00,VWS V14.01,2013-08-12 17:48:00,
2013-08-12 13:53:00,93.6,70.3,29.91,NNW,333,0.0,0.0,47,0.00,,,0.00,958.00,VWS V14.01,2013-08-12 17:53:00,
2013-08-12 13:58:00,93.8,71.2,29.91,NNW,347,0.0,0.0,48,0.00,,,0.00,970.00,VWS V14.01,2013-08-12 17:58:00,
2013-08-12 14:03:00,94.0,70.7,29.91,North,0,6.0,9.0,47,0.00,,,0.00,932.00,VWS V14.01,2013-08-12 18:03:00,
2013-08-12 14:08:00,94.0,70.7,29.91,North,0,3.0,4.0,47,0.00,,,0.00,930.00,VWS V14.01,2013-08-12 18:08:00,
2013-08-12 14:13:00,94.0,71.9,29.91,NNW,347,2.0,4.0,49,0.00,,,0.00,937.00,VWS V14.01,2013-08-12 18:13:00,
2013-08-12 14:18:00,94.0,70.7,29.91,North,349,0.0,1.0,47,0.00,,,0.00,932.00,VWS V14.01,2013-08-12 18:18:00,
2013-08-12 14:23:00,94.3,71.0,29.91,North,358,0.0,1.0,47,0.00,,,0.00,886.00,VWS V14.01,2013-08-12 18:23:00,
2013-08-12 14:28:00,94.0,70.7,29.90,NW,317,0.0,0.0,47,0.00,,,0.00,933.00,VWS V14.01,2013-08-12 18:28:00,
2013-08-12 14:33:00,94.5,72.4,29.90,WNW,285,3.0,5.0,49,0.00,,,0.00,898.00,VWS V14.01,2013-08-12 18:33:00,
2013-08-12 14:38:00,94.5,70.5,29.90,NW,316,0.0,6.0,46,0.00,,,0.00,868.00,VWS V14.01,2013-08-12 18:38:00,
2013-08-12 14:43:00,94.5,69.9,29.90,North,4,0.0,0.0,45,0.00,,,0.00,867.00,VWS V14.01,2013-08-12 18:43:00,
2013-08-12 14:48:00,94.9,70.9,29.90,North,353,3.0,3.0,46,0.00,,,0.00,875.00,VWS V14.01,2013-08-12 18:48:00,
2013-08-12 14:53:00,95.1,71.7,29.90,NW,311,1.0,1.0,47,0.00,,,0.00,891.00,VWS V14.01,2013-08-12 18:53:00,
2013-08-12 14:58:00,94.9,68.9,29.89,NW,315,0.0,0.0,43,0.00,,,0.00,128.00,VWS V14.01,2013-08-12 18:58:00,
2013-08-12 15:03:00,94.3,71.0,29.89,West,281,4.0,6.0,47,0.00,,,0.00,879.00,VWS V14.01,2013-08-12 19:03:00,
2013-08-12 15:08:00,93.8,68.6,29.89,NW,306,0.0,3.0,44,0.00,,,0.00,823.00,VWS V14.01,2013-08-12 19:08:00,
2013-08-12 15:13:00,94.0,69.4,29.89,West,278,5.0,5.0,45,0.00,,,0.00,828.00,VWS V14.01,2013-08-12 19:13:00,
2013-08-12 15:18:00,94.3,69.7,29.89,WNW,291,2.0,3.0,45,0.00,,,0.00,807.00,VWS V14.01,2013-08-12 19:18:00,
2013-08-12 15:23:00,94.5,70.5,29.89,NE,49,1.0,2.0,46,0.00,,,0.00,795.00,VWS V14.01,2013-08-12 19:23:00,
2013-08-12 15:28:00,94.9,71.5,29.89,NNE,13,0.0,0.0,47,0.00,,,0.00,788.00,VWS V14.01,2013-08-12 19:28:00,
2013-08-12 15:33:00,95.1,70.4,29.89,NNE,13,0.0,0.0,45,0.00,,,0.00,791.00,VWS V14.01,2013-08-12 19:33:00,
2013-08-12 15:39:00,95.1,71.1,29.89,West,263,0.0,0.0,46,0.00,,,0.00,782.00,VWS V14.01,2013-08-12 19:39:00,
2013-08-12 15:43:00,95.4,69.4,29.88,North,8,0.0,0.0,43,0.00,,,0.00,786.00,VWS V14.01,2013-08-12 19:43:00,
2013-08-12 15:48:00,95.4,69.4,29.88,North,358,0.0,0.0,43,0.00,,,0.00,759.00,VWS V14.01,2013-08-12 19:48:00,
2013-08-12 15:53:00,95.6,69.6,29.88,North,0,1.0,1.0,43,0.00,,,0.00,738.00,VWS V14.01,2013-08-12 19:53:00,
2013-08-12 15:58:00,95.6,69.6,29.87,North,5,4.0,5.0,43,0.00,,,0.00,722.00,VWS V14.01,2013-08-12 19:58:00,
2013-08-12 16:03:00,95.1,69.1,29.87,NNE,27,0.0,1.0,43,0.00,,,0.00,663.00,VWS V14.01,2013-08-12 20:03:00,
2013-08-12 16:08:00,95.1,69.1,29.87,North,0,0.0,0.0,43,0.00,,,0.00,707.00,VWS V14.01,2013-08-12 20:08:00,
2013-08-12 16:13:00,95.1,68.4,29.87,NNE,29,5.0,5.0,42,0.00,,,0.00,673.00,VWS V14.01,2013-08-12 20:13:00,
2013-08-12 16:18:00,95.1,68.4,29.87,North,358,5.0,5.0,42,0.00,,,0.00,673.00,VWS V14.01,2013-08-12 20:18:00,
2013-08-12 16:23:00,95.1,69.1,29.87,North,358,7.0,7.0,43,0.00,,,0.00,652.00,VWS V14.01,2013-08-12 20:23:00,
2013-08-12 16:28:00,95.1,68.4,29.87,NNW,339,4.0,4.0,42,0.00,,,0.00,631.00,VWS V14.01,2013-08-12 20:28:00,
2013-08-12 16:33:00,95.1,68.4,29.87,North,352,0.0,1.0,42,0.00,,,0.00,626.00,VWS V14.01,2013-08-12 20:33:00,
2013-08-12 16:38:00,95.6,68.2,29.87,NNE,25,1.0,1.0,41,0.00,,,0.00,610.00,VWS V14.01,2013-08-12 20:38:00,
2013-08-12 16:43:00,95.6,67.4,29.87,NNW,333,1.0,2.0,40,0.00,,,0.00,594.00,VWS V14.01,2013-08-12 20:43:00,
2013-08-12 16:48:00,95.4,68.7,29.87,NNW,332,1.0,1.0,42,0.00,,,0.00,501.00,VWS V14.01,2013-08-12 20:48:00,
2013-08-12 16:53:00,94.7,68.7,29.87,NNW,338,0.0,0.0,43,0.00,,,0.00,568.00,VWS V14.01,2013-08-12 20:53:00,
2013-08-12 16:58:00,94.5,67.9,29.87,NNW,347,0.0,0.0,42,0.00,,,0.00,545.00,VWS V14.01,2013-08-12 20:58:00,
2013-08-12 17:03:00,94.7,67.4,29.87,West,272,2.0,3.0,41,0.00,,,0.00,533.00,VWS V14.01,2013-08-12 21:03:00,
2013-08-12 17:08:00,94.7,67.4,29.87,NNW,338,0.0,1.0,41,0.00,,,0.00,515.00,VWS V14.01,2013-08-12 21:08:00,
2013-08-12 17:13:00,94.7,68.1,29.87,North,0,2.0,3.0,42,0.00,,,0.00,497.00,VWS V14.01,2013-08-12 21:13:00,
2013-08-12 17:18:00,94.9,66.8,29.87,North,0,0.0,0.0,40,0.00,,,0.00,480.00,VWS V14.01,2013-08-12 21:18:00,
2013-08-12 17:23:00,95.1,68.4,29.87,NW,326,1.0,1.0,42,0.00,,,0.00,476.00,VWS V14.01,2013-08-12 21:23:00,
2013-08-12 17:28:00,95.1,67.0,29.87,NNW,342,0.0,2.0,40,0.00,,,0.00,434.00,VWS V14.01,2013-08-12 21:28:00,
2013-08-12 17:33:00,95.1,67.7,29.87,NNW,340,0.0,3.0,41,0.00,,,0.00,434.00,VWS V14.01,2013-08-12 21:33:00,
2013-08-12 17:38:00,95.4,67.3,29.87,WSW,247,0.0,0.0,40,0.00,,,0.00,422.00,VWS V14.01,2013-08-12 21:38:00,
2013-08-12 17:43:00,95.6,67.4,29.87,WSW,247,0.0,0.0,40,0.00,,,0.00,278.00,VWS V14.01,2013-08-12 21:43:00,
2013-08-12 17:48:00,95.4,68.7,29.87,WSW,258,0.0,0.0,42,0.00,,,0.00,221.00,VWS V14.01,2013-08-12 21:48:00,
2013-08-12 17:53:00,94.9,68.9,29.87,North,0,2.0,4.0,43,0.00,,,0.00,244.00,VWS V14.01,2013-08-12 21:53:00,
2013-08-12 17:59:00,94.0,68.8,29.87,NNW,332,1.0,1.0,44,0.00,,,0.00,244.00,VWS V14.01,2013-08-12 21:59:00,
2013-08-12 18:04:00,93.6,69.1,29.87,NNW,332,0.0,0.0,45,0.00,,,0.00,287.00,VWS V14.01,2013-08-12 22:04:00,
2013-08-12 18:09:00,93.4,68.9,29.87,NNW,332,0.0,0.0,45,0.00,,,0.00,348.00,VWS V14.01,2013-08-12 22:09:00,
2013-08-12 18:14:00,93.4,68.2,29.87,NNW,332,0.0,0.0,44,0.00,,,0.00,287.00,VWS V14.01,2013-08-12 22:14:00,
2013-08-12 18:19:00,93.6,68.4,29.87,NNW,332,0.0,0.0,44,0.00,,,0.00,257.00,VWS V14.01,2013-08-12 22:19:00,
2013-08-12 18:24:00,93.8,69.3,29.87,NNW,332,0.0,0.0,45,0.00,,,0.00,179.00,VWS V14.01,2013-08-12 22:24:00,
2013-08-12 18:29:00,93.8,68.6,29.86,NNW,332,0.0,0.0,44,0.00,,,0.00,123.00,VWS V14.01,2013-08-12 22:29:00,
2013-08-12 18:34:00,93.6,70.3,29.86,NNW,332,0.0,0.0,47,0.00,,,0.00,128.00,VWS V14.01,2013-08-12 22:34:00,
2013-08-12 18:39:00,93.2,71.8,29.86,NNW,332,0.0,0.0,50,0.00,,,0.00,160.00,VWS V14.01,2013-08-12 22:39:00,
2013-08-12 18:44:00,92.5,69.3,29.86,WNW,291,0.0,0.0,47,0.00,,,0.00,76.00,VWS V14.01,2013-08-12 22:44:00,
2013-08-12 18:49:00,91.8,70.5,29.86,North,1,0.0,0.0,50,0.00,,,0.00,56.00,VWS V14.01,2013-08-12 22:49:00,
2013-08-12 18:54:00,91.2,71.1,29.86,North,1,0.0,0.0,52,0.00,,,0.00,49.00,VWS V14.01,2013-08-12 22:54:00,
2013-08-12 18:59:00,90.3,71.4,29.86,North,1,0.0,0.0,54,0.00,,,0.00,42.00,VWS V14.01,2013-08-12 22:59:00,
2013-08-12 19:04:00,89.5,71.2,29.86,North,1,0.0,0.0,55,0.00,,,0.00,35.00,VWS V14.01,2013-08-12 23:04:00,
2013-08-12 19:09:00,88.6,71.9,29.86,North,1,0.0,0.0,58,0.00,,,0.00,30.00,VWS V14.01,2013-08-12 23:09:00,
2013-08-12 19:14:00,88.0,73.4,29.85,North,1,0.0,0.0,62,0.00,,,0.00,26.00,VWS V14.01,2013-08-12 23:14:00,
2013-08-12 19:19:00,87.4,73.3,29.85,North,1,0.0,0.0,63,0.00,,,0.00,26.00,VWS V14.01,2013-08-12 23:19:00,
2013-08-12 19:24:00,86.7,73.1,29.85,North,1,0.0,0.0,64,0.00,,,0.00,26.00,VWS V14.01,2013-08-12 23:24:00,
2013-08-12 19:29:00,86.1,72.5,29.85,North,1,0.0,0.0,64,0.00,,,0.00,26.00,VWS V14.01,2013-08-12 23:29:00,
2013-08-12 19:34:00,85.7,72.1,29.85,North,1,0.0,0.0,64,0.00,,,0.00,23.00,VWS V14.01,2013-08-12 23:34:00,
2013-08-12 19:39:00,85.3,72.7,29.85,North,1,0.0,0.0,66,0.00,,,0.00,19.00,VWS V14.01,2013-08-12 23:39:00,
2013-08-12 19:44:00,84.9,72.3,29.86,North,1,0.0,0.0,66,0.00,,,0.00,16.00,VWS V14.01,2013-08-12 23:44:00,
2013-08-12 19:49:00,84.5,71.9,29.86,North,1,0.0,0.0,66,0.00,,,0.00,11.00,VWS V14.01,2013-08-12 23:49:00,
2013-08-12 19:54:00,84.1,71.1,29.86,North,1,0.0,0.0,65,0.00,,,0.00,7.00,VWS V14.01,2013-08-12 23:54:00,
2013-08-12 19:59:00,83.8,71.2,29.86,North,1,0.0,0.0,66,0.00,,,0.00,0.00,VWS V14.01,2013-08-12 23:59:00,
2013-08-12 20:04:00,83.4,70.9,29.86,North,1,0.0,0.0,66,0.00,,,0.00,0.00,VWS V14.01,2013-08-13 00:04:00,
2013-08-12 20:09:00,83.0,70.9,29.86,North,1,0.0,0.0,67,0.00,,,0.00,0.00,VWS V14.01,2013-08-13 00:09:00,
2013-08-12 20:14:00,82.6,71.0,29.86,North,1,0.0,0.0,68,0.00,,,0.00,0.00,VWS V14.01,2013-08-13 00:14:00,
2013-08-12 20:19:00,82.4,70.8,29.86,North,1,0.0,0.0,68,0.00,,,0.00,0.00,VWS V14.01,2013-08-13 00:19:00,
2013-08-12 20:24:00,82.2,72.3,29.86,North,1,0.0,0.0,72,0.00,,,0.00,0.00,VWS V14.01,2013-08-13 00:24:00,
2013-08-12 20:29:00,82.0,72.1,29.86,North,1,0.0,0.0,72,0.00,,,0.00,0.00,VWS V14.01,2013-08-13 00:29:00,
2013-08-12 20:34:00,81.8,72.7,29.86,North,1,0.0,0.0,74,0.00,,,0.00,0.00,VWS V14.01,2013-08-13 00:34:00,
2013-08-12 20:39:00,81.6,72.5,29.86,North,1,0.0,0.0,74,0.00,,,0.00,0.00,VWS V14.01,2013-08-13 00:39:00,
2013-08-12 20:44:00,81.4,72.3,29.86,North,1,0.0,0.0,74,0.00,,,0.00,0.00,VWS V14.01,2013-08-13 00:44:00,
2013-08-12 20:49:00,81.2,71.7,29.86,North,1,0.0,0.0,73,0.00,,,0.00,0.00,VWS V14.01,2013-08-13 00:49:00,
2013-08-12 20:54:00,81.1,72.8,29.86,North,1,0.0,0.0,76,0.00,,,0.00,0.00,VWS V14.01,2013-08-13 00:54:00,
2013-08-12 20:59:00,81.1,73.2,29.86,North,1,0.0,0.0,77,0.00,,,0.00,0.00,VWS V14.01,2013-08-13 00:59:00,
2013-08-12 21:04:00,81.1,74.3,29.86,North,1,0.0,0.0,80,0.00,,,0.00,0.00,VWS V14.01,2013-08-13 01:04:00,
2013-08-12 21:09:00,81.1,74.7,29.86,North,1,0.0,0.0,81,0.00,,,0.00,0.00,VWS V14.01,2013-08-13 01:09:00,
2013-08-12 21:14:00,80.9,74.9,29.86,North,1,0.0,0.0,82,0.00,,,0.00,0.00,VWS V14.01,2013-08-13 01:14:00,
2013-08-12 21:19:00,80.7,75.1,29.86,North,1,0.0,0.0,83,0.00,,,0.00,0.00,VWS V14.01,2013-08-13 01:19:00,
2013-08-12 21:24:00,80.7,74.3,29.86,North,1,0.0,0.0,81,0.00,,,0.00,0.00,VWS V14.01,2013-08-13 01:24:00,
2013-08-12 21:29:00,80.5,73.8,29.86,North,1,0.0,0.0,80,0.00,,,0.00,0.00,VWS V14.01,2013-08-13 01:29:00,
2013-08-12 21:34:00,80.3,73.9,29.86,North,1,0.0,0.0,81,0.00,,,0.00,0.00,VWS V14.01,2013-08-13 01:34:00,
2013-08-12 21:39:00,80.3,73.9,29.86,North,1,0.0,0.0,81,0.00,,,0.00,0.00,VWS V14.01,2013-08-13 01:39:00,
2013-08-12 21:44:00,80.3,73.9,29.86,North,1,0.0,0.0,81,0.00,,,0.00,0.00,VWS V14.01,2013-08-13 01:44:00,
2013-08-12 21:49:00,80.1,73.8,29.86,North,1,0.0,0.0,81,0.00,,,0.00,0.00,VWS V14.01,2013-08-13 01:49:00,
2013-08-12 21:54:00,80.1,74.1,29.86,North,1,0.0,0.0,82,0.00,,,0.00,0.00,VWS V14.01,2013-08-13 01:54:00,
2013-08-12 21:59:00,80.1,74.5,29.87,North,1,0.0,0.0,83,0.00,,,0.00,0.00,VWS V14.01,2013-08-13 01:59:00,
2013-08-12 22:04:00,79.9,74.3,29.87,North,1,0.0,0.0,83,0.00,,,0.00,0.00,VWS V14.01,2013-08-13 02:04:00,
2013-08-12 22:09:00,79.9,74.3,29.87,North,1,0.0,0.0,83,0.00,,,0.00,0.00,VWS V14.01,2013-08-13 02:09:00,
2013-08-12 22:14:00,79.8,74.2,29.86,North,1,0.0,0.0,83,0.00,,,0.00,0.00,VWS V14.01,2013-08-13 02:14:00,
2013-08-12 22:19:00,79.8,74.2,29.86,North,1,0.0,0.0,83,0.00,,,0.00,0.00,VWS V14.01,2013-08-13 02:19:00,
2013-08-12 22:24:00,79.6,74.0,29.86,North,1,0.0,0.0,83,0.00,,,0.00,0.00,VWS V14.01,2013-08-13 02:24:00,
2013-08-12 22:29:00,79.6,74.0,29.86,North,1,0.0,0.0,83,0.00,,,0.00,0.00,VWS V14.01,2013-08-13 02:29:00,
2013-08-12 22:34:00,79.6,74.3,29.86,North,1,0.0,0.0,84,0.00,,,0.00,0.00,VWS V14.01,2013-08-13 02:34:00,
2013-08-12 22:39:00,79.4,74.2,29.86,North,1,0.0,0.0,84,0.00,,,0.00,0.00,VWS V14.01,2013-08-13 02:39:00,
2013-08-12 22:44:00,79.4,74.5,29.85,North,1,0.0,0.0,85,0.00,,,0.00,0.00,VWS V14.01,2013-08-13 02:44:00,
2013-08-12 22:49:00,79.4,74.8,29.85,North,1,0.0,0.0,86,0.00,,,0.00,0.00,VWS V14.01,2013-08-13 02:49:00,
2013-08-12 22:53:00,79.6,75.1,29.85,North,1,0.0,0.0,86,0.00,,,0.00,0.00,VWS V14.01,2013-08-13 02:53:00,
2013-08-12 22:58:00,79.6,75.1,29.84,North,1,0.0,0.0,86,0.00,,,0.00,0.00,VWS V14.01,2013-08-13 02:58:00,
2013-08-12 23:03:00,79.4,75.2,29.84,North,1,0.0,0.0,87,0.00,,,0.00,0.00,VWS V14.01,2013-08-13 03:03:00,
2013-08-12 23:08:00,79.4,75.2,29.84,North,1,0.0,0.0,87,0.00,,,0.00,0.00,VWS V14.01,2013-08-13 03:08:00,
2013-08-12 23:13:00,79.2,75.3,29.85,North,1,0.0,0.0,88,0.00,,,0.00,0.00,VWS V14.01,2013-08-13 03:13:00,
2013-08-12 23:18:00,79.0,74.8,29.85,North,1,0.0,0.0,87,0.00,,,0.00,0.00,VWS V14.01,2013-08-13 03:18:00,
2013-08-12 23:23:00,78.8,74.6,29.85,North,1,0.0,0.0,87,0.00,,,0.00,0.00,VWS V14.01,2013-08-13 03:23:00,
2013-08-12 23:28:00,78.8,74.9,29.84,North,1,0.0,0.0,88,0.00,,,0.00,0.00,VWS V14.01,2013-08-13 03:28:00,
2013-08-12 23:33:00,78.8,75.3,29.84,North,1,0.0,0.0,89,0.00,,,0.00,0.00,VWS V14.01,2013-08-13 03:33:00,
2013-08-12 23:38:00,78.6,75.1,29.84,North,1,0.0,0.0,89,0.00,,,0.00,0.00,VWS V14.01,2013-08-13 03:38:00,
2013-08-12 23:43:00,78.6,75.1,29.84,North,1,0.0,0.0,89,0.00,,,0.00,0.00,VWS V14.01,2013-08-13 03:43:00,
2013-08-12 23:48:00,78.5,75.0,29.84,North,1,0.0,0.0,89,0.00,,,0.00,0.00,VWS V14.01,2013-08-13 03:48:00,
2013-08-12 23:53:00,78.3,74.8,29.84,North,1,0.0,0.0,89,0.00,,,0.00,0.00,VWS V14.01,2013-08-13 03:53:00,
2013-08-12 23:58:00,78.1,74.6,29.84,North,1,0.0,0.0,89,0.00,,,0.00,0.00,VWS V14.01,2013-08-13 03:58:00,